Ashgabat, Turkmenistan

3:05 AM +05 on November 12, 2019 (GMT +0500)
Ashgabat

Weather History for UTAA - June, 2019

Change the Weather History Date:

Monday, June 3, 2019

  Actual Average (WUND) Record (WUND)
Temperature  
Mean Temperature 83 °F -  
Max Temperature 95 °F 96 °F - (-1)
Min Temperature 71 °F 70 °F - (-1)
Cooling Degree Days 18    
Growing Degree Days 33 (Base 50)    
Moisture  
Dew Point 52 °F    
Average Humidity 32    
Maximum Humidity 53    
Minimum Humidity 11    
Precipitation  
Precipitation 0.00 in 0.01 in - ()
Sea Level Pressure  
Sea Level Pressure 29.93 in    
Wind  
Wind Speed 9 mph ()    
Max Wind Speed 20 mph    
Max Gust Speed -    
Visibility 6.1 miles    
Events Rain , Thunderstorm    
Averages and records for this station are not official NWS values.
T = Trace of Precipitation, MM = Missing Value Source: Averaged Metar Reports

Daily Weather History Graph

Daily Weather History Graph

Search for Another Location

Airport or City:

Astronomy

Jun. 03, 2019 Rise Set
Actual Time 5:45 AM +05 8:24 PM +05
Civil Twilight 5:14 AM +05 8:55 PM +05
Nautical Twilight 4:36 AM +05 9:33 PM +05
Astronomical Twilight 3:52 AM +05 10:17 PM +05
Moon 5:47 AM +05 (6/3) 8:23 PM +05 (6/3)
Length of Visible Light 15h 40m
Length of Day
14h 39m
Waning Crescent, 0% of the Moon is Illuminated
Jun 3
Waning Crescent
Jun 3
New
Jun 10
First Quarter
Jun 17
Full
Jun 25
Last Quarter

Hourly Weather History & Observations

Time (+05) Temp. Heat Index Dew Point Humidity Pressure Visibility Wind Dir Wind Speed Gust Speed Precip Events Conditions
12:00 AM 78.8 °F - 51.8 °F 39% 29.95 in 6.2 mi WSW 9.2 mph - N/A   Scattered Clouds
1:00 AM 77.0 °F - 51.8 °F 41% 29.95 in 6.2 mi West 9.2 mph - N/A   Scattered Clouds
2:00 AM 78 °F - 51 °F 28% 29.96 in 6 mi WNW 8.9 mph - -   Mostly Cloudy
2:00 AM 77.0 °F - 51.8 °F 41% 29.95 in 6.2 mi WNW 11.5 mph - N/A   Mostly Cloudy
3:00 AM 75.2 °F - 51.8 °F 44% 29.95 in 6.2 mi West 6.9 mph - N/A   Scattered Clouds
4:00 AM 73.4 °F - 51.8 °F 47% 29.92 in 6.2 mi West 6.9 mph - N/A   Scattered Clouds
5:00 AM 73 °F - 50 °F 33% 29.95 in 6 mi West 8.9 mph - -   Partly Cloudy
5:00 AM 73.4 °F - 51.8 °F 47% 29.92 in 6.2 mi West 9.2 mph - N/A   Unknown
6:00 AM 71.6 °F - 51.8 °F 50% 29.92 in 6.2 mi WNW 4.6 mph - N/A   Scattered Clouds
7:00 AM 73.4 °F - 55.4 °F 53% 29.95 in 6.2 mi North 6.9 mph - N/A   Partly Cloudy
8:00 AM 78 °F - 51 °F 28% 29.96 in 6 mi NNW 6.7 mph - -   Scattered Clouds
8:00 AM 77.0 °F - 55.4 °F 47% 29.95 in 6.2 mi NW 9.2 mph - N/A   Partly Cloudy
9:00 AM 80.6 °F 80.5 °F 55.4 °F 42% 29.98 in 6.2 mi WNW 13.8 mph - N/A   Partly Cloudy
10:00 AM 84.2 °F 82.8 °F 53.6 °F 35% 29.98 in 6.2 mi WNW 13.8 mph - N/A   Partly Cloudy
11:00 AM 86 °F - 56 °F 25% 29.96 in 6 mi West 15.7 mph - -   Scattered Clouds
11:00 AM 86.0 °F 84.2 °F 53.6 °F 33% 29.98 in 6.2 mi West 16.1 mph - N/A   Partly Cloudy
12:00 PM 89.6 °F 87.3 °F 53.6 °F 29% 29.95 in 6.2 mi WNW 16.1 mph - N/A   Scattered Clouds
1:00 PM 91.4 °F - 50.0 °F 24% 29.95 in 6.2 mi WNW 16.1 mph - N/A   Scattered Clouds
2:00 PM 92 °F - 50 °F 15% 29.92 in 6 mi NW 15.7 mph - -   Scattered Clouds
2:00 PM 93.2 °F - 51.8 °F 24% 29.92 in 6.2 mi WNW 13.8 mph - N/A   Scattered Clouds
3:00 PM 93.2 °F - 50.0 °F 23% 29.92 in 6.2 mi WNW 13.8 mph - N/A   Mostly Cloudy
4:00 PM 95.0 °F - 48.2 °F 20% 29.89 in 6.2 mi West 11.5 mph - N/A   Mostly Cloudy
5:00 PM 95 °F - 46 °F 11% 29.87 in 6 mi West 11.2 mph - -   Partly Cloudy
5:00 PM 93.2 °F - 46.4 °F 20% 29.89 in 6.2 mi West 13.8 mph - N/A   Mostly Cloudy
6:00 PM 93.2 °F - 48.2 °F 21% 29.86 in 6.2 mi West 13.8 mph - N/A   Mostly Cloudy
7:00 PM 93.2 °F - 50.0 °F 23% 29.86 in 6.2 mi West 11.5 mph - N/A   Mostly Cloudy
8:00 PM 87 °F - 53 °F 22% 29.87 in 6 mi ENE 20.1 mph - - Rain , Thunderstorm Thunderstorms and Rain
8:00 PM 86.0 °F - 51.8 °F 31% 29.89 in 5.6 mi East 4.6 mph - N/A Rain , Thunderstorm Light Thunderstorms and Rain
9:00 PM 84.2 °F 83.5 °F 57.2 °F 40% 29.89 in 5.0 mi East 4.6 mph - N/A   Mostly Cloudy
10:00 PM 82.4 °F 81.7 °F 55.4 °F 39% 29.92 in 6.2 mi SE 9.2 mph - N/A   Mostly Cloudy
11:00 PM 83 °F - 53 °F 25% 29.90 in 6 mi South 6.7 mph - -   Partly Cloudy
11:00 PM 82.4 °F 81.4 °F 53.6 °F 37% 29.92 in 6.2 mi South 6.9 mph - N/A   Mostly Cloudy